Regional Weather Roundup
Issued by NWS

Home | Current Version | Previous Version | Text Only | Print | Product List | Glossary Off
Versions: 1 2 3 4 5 6 7 8 9 10 11 12 13 14 15 16 17 18 19 20 21 22 23 24 25 26 27 28 29 30 31 32 33 34 35 36 37 38 39 40 41 42 43 44 45 46 47 48 49 50

000
ASUS44 KMEG 200810
RWRTN
TENNESSEE HOURLY STATE WEATHER ROUNDUP
NATIONAL WEATHER SERVICE MEMPHIS TN
300 AM CDT SUN APR 20 2014

TNZ002-004-019-021-049-052-054-088>092-200900-
WEST TENNESSEE

CITY           SKY/WX    TMP DP  RH WIND       PRES   REMARKS
MEMPHIS INTL   CLEAR     54  46  74 CALM      30.14S
NWS MEMPHIS      N/A     50 N/A N/A MISG        N/A
JACKSON        CLEAR     47  43  86 CALM      30.15R
DYERSBURG      CLEAR     52  39  62 E5        30.17S
UNION CITY     CLEAR     50  46  87 CALM      30.15S
PARIS          PTCLDY    52  39  61 E8        30.16F
LEXINGTON      CLEAR     45  43  93 CALM      30.14F
SAVANNAH       CLEAR     43  43 100 CALM      30.16S
$$

TNZ008-025-027-028-033-062-065-066-200900-
NORTH MIDDLE TENNESSEE

CITY           SKY/WX    TMP DP  RH WIND       PRES   REMARKS
NASHVILLE      PTCLDY    50  44  80 CALM      30.18R
DICKSON        CLEAR     57  36  44 NE3       30.17S
PORTLAND       CLEAR     52  37  58 CALM      30.18R
CLARKSVILLE    PTCLDY    49  43  80 CALM      30.18R
SMYRNA         CLEAR     46  42  86 CALM      30.18S
MURFREESBORO   CLEAR     49  44  83 CALM      30.17R
COOKEVILLE     CLEAR     39  39 100 CALM      30.17S
LIVINGSTON     CLEAR     50  36  58 CALM      30.18
GALLATIN       CLEAR     55  38  52 CALM      30.18R
CROSSVILLE     CLEAR     43  38  82 CALM      30.20R
$$

TNZ061-075-076-078-094-096-097-200900-
SOUTH MIDDLE TENNESSEE

CITY           SKY/WX    TMP DP  RH WIND       PRES   REMARKS
LEWISBURG      CLEAR     42  40  93 CALM      30.17R
FAYETTEVILLE   CLEAR     50  39  65 CALM      30.17S
TULLAHOMA      CLEAR     43  39  87 CALM      30.19R
WINCHESTER     CLEAR     43  41  93 CALM      30.19R
MCMINNVILLE    CLEAR     43  43 100 CALM      30.19R
COLUMBIA       CLEAR     45  45 100 CALM      30.15S
SHELBYVILLE    CLEAR     45  43  93 CALM      30.18R
$$

TNZ017-018-042-046-047-200900-
NORTHEAST TENNESSEE

CITY           SKY/WX    TMP DP  RH WIND       PRES   REMARKS
TRI CITIES     MOCLDY    47  40  76 CALM      30.20S
ELIZABETHTON   SUNNY     46  39  76 CALM      30.21R
$$

TNZ012-013-036-069-073-074-200900-
CENTRAL EAST TENNESSEE

CITY           SKY/WX    TMP DP  RH WIND       PRES   REMARKS
KNOXVILLE      MOCLDY    49  48  97 CALM      30.19R
OAK RIDGE      MOCLDY    47  43  86 CALM      30.20R
$$

TNZ083-085-099-200900-
SOUTHEAST TENNESSEE

CITY           SKY/WX    TMP DP  RH WIND       PRES   REMARKS
CHATTANOOGA    CLEAR     48  45  89 CALM      30.19R
$$

SKY/WX REPORTED AS FAIR MEANS FEW OR NO CLOUDS BELOW
12 THOUSAND FEET.




USA.gov is the U.S. government's official web portal to all federal, state and local government web resources and services.